{"data":{"norad_id":52541,"intl_designator":"2022-051J","name":"STARLINK-3845","alt_names":[],"object_type":"PAYLOAD","status":"ACTIVE","operator":null,"country":"US","launch_date":"2022-05-13","launch_site_code":"AFWTR","launch_vehicle":null,"mission":null,"orbit_class":"UNKNOWN","rcs_meters":null,"size_class":null,"mass_kg":null,"dimensions":null,"purposes":["comms"],"wikipedia_slug":null,"has_3d_model":false,"image_url":null,"decayed_at":null,"tle_current":{"epoch":"2026-05-25T03:50:12.444000Z","epoch_age_seconds":54596,"freshness":"FRESH","line1":"1 52541U 22051J   26145.15986625  .00001021  00000+0  82228-4 0  9996","line2":"2 52541  53.2130 150.8317 0000988  68.9392 291.1705 15.08848499222917","mean_motion":15.08848499,"eccentricity":9.88e-5,"inclination_deg":53.213,"raan_deg":150.8317,"arg_perigee_deg":68.9392,"mean_anomaly_deg":291.1705,"bstar":8.2228e-5,"rev_number":22291,"period_min":95.437017099753,"perigee_km":539.03392702731,"apogee_km":540.40089505893,"semimajor_km":6917.8544110431,"source":"CELESTRAK","updated_at":"2026-05-25T13:38:17.162580Z"}}}